This is the latest recevied weather packets stored in our database for station/object KA7EII-13. If no packets are shown the sender has not sent any weather packets the latest 10 day(s).
| Time | Temp. | Humidity | Pressure | Rain* | Wind** | Luminosity | Snow |
|---|---|---|---|---|---|---|---|
| 1777828556 | 19.44° C | 28% | 1105 hPa | 0 mm | - | 812 W/m² | - |
| 1777828254 | 18.89° C | 31% | 1105.2 hPa | 0 mm | - | 765 W/m² | - |
| 1777827949 | 19.44° C | 29% | 1105.2 hPa | 0 mm | - | 766 W/m² | - |
| 1777827647 | 19.44° C | 30% | 1105.2 hPa | 0 mm | - | 776 W/m² | - |
| 1777827344 | 18.89° C | 31% | 1105.4 hPa | 0 mm | - | 776 W/m² | - |
| 1777827040 | 18.89° C | 30% | 1105.2 hPa | 0 mm | - | 716 W/m² | - |
| 1777826737 | 18.89° C | 32% | 1105.4 hPa | 0 mm | - | 701 W/m² | - |
| 1777826434 | 18.33° C | 33% | 1105.4 hPa | 0 mm | - | 696 W/m² | - |
| 1777826131 | 17.78° C | 33% | 1105.5 hPa | 0 mm | - | 698 W/m² | - |
| 1777825828 | 17.78° C | 32% | 1105.4 hPa | 0 mm | - | 649 W/m² | - |
| 1777825525 | 17.78° C | 32% | 1105.4 hPa | 0 mm | - | 621 W/m² | - |
| 1777825223 | 17.78° C | 32% | 1105.5 hPa | 0 mm | - | 621 W/m² | - |
| 1777824920 | 17.78° C | 33% | 1105.5 hPa | 0 mm | - | 618 W/m² | - |
| 1777824616 | 17.78° C | 34% | 1105.4 hPa | 0 mm | - | 613 W/m² | - |
| 1777824313 | 16.67° C | 32% | 1105.4 hPa | 0 mm | - | 585 W/m² | - |
| 1777824009 | 16.67° C | 36% | 1105.5 hPa | 0 mm | - | 560 W/m² | - |
| 1777823705 | 17.22° C | 34% | 1105.8 hPa | 0 mm | - | 507 W/m² | - |
| 1777823402 | 16.67° C | 37% | 1105.4 hPa | 0 mm | - | 517 W/m² | - |
| 1777823100 | 16.67° C | 34% | 1105.5 hPa | 0 mm | - | 497 W/m² | - |
| 1777822797 | 16.11° C | 39% | 1105.8 hPa | 0 mm | - | 476 W/m² | - |
| 1777822495 | 15.56° C | 37% | 1105.6 hPa | 0 mm | - | 429 W/m² | - |
| 1777822192 | 15° C | 38% | 1105.6 hPa | 0 mm | - | 399 W/m² | - |
| 1777821890 | 15.56° C | 40% | 1105.8 hPa | 0 mm | - | 358 W/m² | - |
| 1777821587 | 15° C | 44% | 1105.8 hPa | 0 mm | - | 331 W/m² | - |
| 1777821285 | 13.33° C | 45% | 1105.8 hPa | 0 mm | - | 337 W/m² | - |
* Rain latest hour (hover to see other rain measurements)
** Current wind speed in m/s (hover to see current wind gust speed)